Hourly Data Report for October 28, 2019

MUSKOKA
ONTARIO
Current Station Operator: NAVCAN

44°58'29.000" N
79°18'12.000" W
281.90 m
6115529
71532
YQA

Download Data

Hourly Data (October 2019)
Hourly Data Report for October 28, 2019
TIME
LST
Temp Definition
°C
Dew Point Definition
°C
Rel Hum Definition
%
Precip. Amount Definition
mm

Wind Dir Definition
10's deg

Wind Spd Definition
km/h
Visibility Definition
km
Stn Press Definition
kPa
Hmdx Definition


Wind Chill Definition


Weather Definition


00:00 9.1 7.1 87 0.0 28 8 16.1 98.04     LegendNANA
01:00 7.6 6.9 95 0.0 24 8 16.1 98.12     LegendNANA
02:00 6.4 6.1 98 0.0 15 4 16.1 98.18     LegendNANA
03:00 3.6 3.3 98 0.0 18 4 1.0 98.21     Fog
04:00 6.9 6.8 99 0.0 21 4 0.2 98.28     Fog
05:00 6.6 6.5 99 0.0 18 8 0.8 98.33     Fog
06:00 5.4 5.3 99 0.0 LegendMM 4 0.4 98.41     Fog
07:00 4.3 4.3 100 0.0 16 4 0.2 98.43     Fog
08:00 6.0 5.9 99 0.0 14 11 16.1 98.45     LegendNANA
09:00 7.3 7.3 100 0.0 14 9 4.0 98.51     Fog
10:00 9.2 8.2 93 0.0 14 11 16.1 98.49     LegendNANA
11:00 11.8 8.2 78 0.0 14 13 16.1 98.48     LegendNANA
12:00 13.6 6.9 64 0.0 13 17 16.1 98.44     LegendNANA
13:00 14.6 1.9 42 0.0 17 24 16.1 98.40     LegendNANA
14:00 15.1 2.5 42 0.0 15 17 16.1 98.40     LegendNANA
15:00 15.3 2.7 42 0.0 16 18 16.1 98.40     LegendNANA
16:00 14.9 3.2 45 0.0 17 15 16.1 98.42     LegendNANA
17:00 12.6 4.3 57 0.0 16 11 16.1 98.44     LegendNANA
18:00 8.9 4.7 75 0.0 15 9 16.1 98.51     LegendNANA
19:00 7.3 4.5 82 0.0 13 8 16.1 98.52     LegendNANA
20:00 8.0 5.2 82 0.0 13 9 16.1 98.53     LegendNANA
21:00 6.7 5.2 90 0.0 13 8 16.1 98.52     LegendNANA
22:00 7.0 6.0 93 0.0 12 5 16.1 98.52     LegendNANA
23:00 5.0 4.5 97 0.0 12 8 16.1 98.49     LegendNANA

Notes on Data Quality.

Legend

  • E = Estimated
  • M = Missing
  • NA = Not Available*
  • [empty] = Indicates an unobserved value
Date modified: